RH
97 99 98 100 94 92 87 81 80 79 79 77 76 76 75 70 53 41 46 30 32 49 40 22 18 22 21 27 34 40 51 57 34 27 24 26 28 33 34 36 35 40 41 35 31
97 98 98 99 100 98 95 92 87 84 87 86 84 82 80 63 48 55 33 21 28 41 25 29 21 22 28 30 36 43 43 31 30 20 24 28 27 31 32 36 39 42 40 38 34
91 98 90 97 98 99 99 97 96 91 88 90 90 89 82 47 48 28 12 12 22 32 24 27 26 22 25 32 36 43 38 35 23 23 25 25 29 35 37 38 39 46 45 40 37
98 100 90 87 90 100 98 96 98 95 95 98 95 94 74 43 63 14 13 16 28 28 21 22 22 24 30 33 30 37 36 29 27 27 29 28 31 35 43 35 33 38 43 41 38
96 91 87 80 74 83 96 97 97 98 98 99 99 91 55 50 48 16 16 13 16 16 20 22 26 26 26 26 26 36 30 28 28 32 34 32 38 38 43 40 40 44 40 40 40
55 44 42 40 44 60 80 99 99 96 97 95 99 89 51 68 25 16 18 16 16 17 28 27 29 28 34 35 32 34 35 36 34 31 35 39 40 42 38 45 44 41 41 40 40
66 62 43 40 43 37 44 64 81 93 99 94 99 68 60 54 23 16 16 17 20 20 26 30 33 32 33 44 41 41 49 54 53 48 50 41 48 53 39 48 50 48 44 41 43
81 67 94 100 84 64 43 39 58 64 74 92 93 62 56 36 21 18 16 22 22 24 26 32 34 41 36 42 60 49 54 74 58 39 47 40 67 43 47 51 55 52 52 48 50
86 78 97 100 96 57 42 36 43 67 92 92 71 51 54 21 16 16 17 23 24 26 32 32 32 46 45 68 78 80 90 84 70 44 52 42 53 36 55 54 58 57 58 52 58
92 73 85 99 100 100 95 89 89 97 80 70 58 57 46 30 20 20 22 22 28 38 45 42 51 63 60 77 74 67 95 70 77 44 57 60 67 56 54 64 68 67 61 69 69
72 70 79 83 92 98 92 86 80 76 58 56 52 50 43 24 19 22 22 24 28 43 72 56 67 69 55 62 58 66 64 58 49 47 41 52 59 51 53 62 73 74 62 73 72
62 66 72 80 92 79 86 68 77 77 87 68 68 54 26 18 31 25 23 23 41 50 52 59 75 56 48 50 60 67 58 51 34 33 36 44 46 55 59 56 69 78 57 74 70
64 62 69 75 92 74 74 83 78 82 90 77 38 25 19 17 20 26 22 23 29 31 38 42 36 41 39 31 45 43 41 38 35 38 36 50 68 86 68 57 48 55 52 76 79
69 64 68 80 93 93 88 91 90 94 88 70 42 23 16 17 25 29 23 23 27 33 28 34 25 26 28 30 34 37 34 38 40 46 69 46 91 60 69 72 39 42 51 72 75
72 67 76 83 95 98 91 93 93 92 67 37 26 18 24 28 57 50 28 28 41 40 34 50 26 27 30 28 24 32 36 38 40 56 74 72 86 68 72 71 60 41 50 67 77
74 68 79 83 94 94 92 96 94 84 85 57 44 50 65 65 68 55 36 28 31 41 41 44 28 26 28 31 31 35 46 57 63 83 95 83 84 73 86 71 43 47 54 64 76
79 74 82 84 92 89 94 93 85 93 57 84 76 64 60 62 62 64 77 80 68 77 86 62 36 32 30 35 38 54 71 88 70 97 86 86 88 81 62 50 70 67 74 74 81
84 81 75 83 84 89 91 82 93 57 77 66 62 63 71 52 63 55 52 70 66 68 91 90 80 39 34 48 56 38 70 78 67 79 57 66 83 56 46 48 75 83 84 71 80
89 79 93 82 82 92 87 87 79 72 73 66 61 74 81 59 69 82 70 66 60 80 92 97 88 37 35 33 28 46 59 55 60 82 84 57 45 43 43 45 33 67 77 79 83
89 88 91 85 85 98 88 84 78 76 76 67 79 87 73 74 70 85 89 70 66 72 87 95 96 47 42 38 38 40 47 74 87 69 62 41 50 52 42 37 49 72 80 82 84
88 94 83 82 94 96 83 83 87 81 73 80 87 82 78 88 95 92 92 90 85 87 77 96 95 71 49 54 50 45 72 56 60 86 67 71 42 72 49 61 69 82 82 89 91
88 97 78 88 91 99 94 79 72 75 77 93 84 84 94 99 96 96 95 90 85 87 88 65 94 99 70 52 46 45 51 64 79 62 92 84 54 72 74 76 95 86 86 89 91
94 91 80 82 99 97 78 74 62 69 79 98 98 94 100 98 97 91 93 88 86 92 96 79 93 95 81 75 54 48 43 79 85 81 75 63 41 56 74 81 79 93 90 91 93
97 97 95 98 92 87 94 92 95 90 97 92 97 93 100 97 100 97 91 88 82 92 95 98 97 96 96 95 84 71 72 61 81 69 75 70 48 41 48 72 74 84 91 94 95
100 88 78 99 94 89 90 81 69 92 99 88 99 98 98 100 94 94 80 92 91 89 99 98 98 95 90 94 97 93 93 84 69 54 54 65 73 64 75 73 88 95 91 94 93
100 96 94 92 82 90 90 89 72 88 98 99 96 99 97 95 95 98 98 98 98 98 98 98 91 97 92 84 96 95 85 95 86 57 56 75 58 56 78 84 80 88 93 95 95
84 83 84 90 96 91 94 84 78 84 90 80 89 94 97 90 99 98 98 98 100 98 97 96 96 96 93 95 96 93 79 79 82 81 59 58 49 60 59 45 84 89 94 96 95
Wind_Speed
18 18 20 19 17 16 15 15 15 16 17 19 20 23 25 28 28 12 3 1 3 8 8 7 3 1 1 2 2 3 2 3 4 4 3 2 1 2 0 3 2 3 4 3 25
15 17 19 21 20 19 17 16 16 16 17 18 20 22 25 26 21 5 2 2 5 6 5 5 2 3 1 1 1 4 3 7 4 2 2 2 1 3 1 0 2 3 5 14 20
15 16 17 18 19 20 18 18 18 16 16 17 19 21 25 20 4 2 2 2 4 5 3 5 2 0 1 2 3 4 5 4 3 2 2 2 2 4 4 5 6 7 9 7 7
16 17 16 16 17 16 16 17 19 17 16 16 17 21 21 7 4 1 2 3 3 5 4 2 1 1 2 3 2 2 7 4 4 2 2 3 1 2 6 5 2 6 10 7 7
16 17 18 18 18 17 17 17 18 18 14 15 16 20 9 4 7 1 3 4 3 3 1 0 1 1 2 2 4 4 3 3 3 5 5 3 7 6 6 6 5 8 9 9 7
19 20 19 19 20 18 16 13 13 15 12 13 14 14 2 3 1 0 4 4 2 2 3 3 2 1 3 3 2 2 4 7 6 6 5 6 5 6 6 6 7 8 9 7 8
22 22 21 20 20 19 19 17 14 14 13 13 11 5 1 10 4 3 5 2 2 1 1 1 1 2 1 4 2 3 6 7 5 3 4 3 5 8 4 5 9 8 7 6 6
23 25 22 23 20 18 17 18 16 14 12 8 8 4 6 3 5 7 4 3 3 0 1 2 2 1 2 4 5 3 2 4 3 1 1 3 7 6 2 8 8 8 7 6 5
24 27 22 22 20 16 14 15 14 12 6 7 3 4 6 2 3 4 4 2 3 3 0 2 3 2 2 2 3 3 3 4 7 1 1 3 6 3 2 6 7 7 6 4 0
25 26 21 20 20 18 14 11 6 3 2 5 2 0 3 2 2 2 3 1 2 3 2 3 4 2 2 3 3 3 3 5 6 2 2 5 14 10 5 7 8 6 4 2 4
25 26 23 19 17 15 15 3 4 2 2 4 2 3 2 1 2 2 3 2 2 3 3 0 2 5 8 7 2 2 3 6 5 5 4 7 10 14 6 6 8 6 3 3 5
22 25 25 22 19 10 5 4 4 1 5 5 5 5 1 0 2 3 1 2 3 3 3 2 7 8 4 3 4 5 4 7 6 2 1 7 12 9 3 3 4 7 2 4 8
20 21 24 21 14 4 9 4 1 4 2 4 1 1 0 2 3 2 3 1 4 3 6 7 4 3 5 3 3 3 5 4 5 6 4 5 7 3 2 5 5 4 3 1 4
19 19 21 19 3 4 1 3 1 2 3 4 2 1 1 1 3 1 2 1 2 3 3 5 3 3 3 3 5 4 2 0 3 5 3 3 5 3 2 1 3 2 5 6 8
17 17 16 12 8 2 4 4 0 2 4 2 2 1 1 2 3 2 1 2 3 3 2 4 2 2 3 3 4 4 0 1 1 3 3 1 2 5 1 4 5 5 6 7 8
16 14 13 6 4 4 8 4 2 6 5 2 2 2 2 1 1 1 1 1 2 3 3 6 2 2 2 2 1 1 1 4 2 2 2 4 4 3 3 4 4 4 7 9 11
15 14 12 7 2 6 6 1 3 3 3 4 2 1 2 3 2 2 2 4 1 5 5 4 2 1 2 1 1 3 4 3 5 2 4 3 2 6 3 5 5 6 8 10 10
15 15 11 8 5 4 1 4 5 5 3 1 2 1 2 3 1 3 1 0 4 2 2 1 4 2 1 1 2 1 4 4 4 2 4 3 5 4 3 4 3 3 6 9 12
14 12 6 6 3 2 4 3 7 6 2 2 4 1 1 2 1 5 1 1 3 2 3 1 4 1 2 2 1 2 1 2 1 2 1 3 3 2 3 7 5 8 8 11 13
5 4 6 4 3 3 2 5 4 1 2 4 5 2 1 2 4 4 3 1 2 3 3 0 4 1 1 2 1 2 3 2 2 2 4 3 3 3 4 6 8 9 10 11 12
4 1 3 5 3 1 4 5 2 2 2 1 2 2 1 2 1 1 2 2 2 2 0 3 1 3 1 4 5 1 2 1 1 2 3 2 4 5 6 3 7 8 8 9 12
4 1 3 4 1 1 3 4 3 2 5 1 2 1 1 1 1 2 3 3 3 2 4 3 3 4 6 1 1 1 3 2 3 4 1 2 5 2 3 3 3 8 8 10 9
3 2 3 3 2 2 2 2 2 3 2 1 2 2 2 1 2 4 2 4 3 1 3 2 2 4 5 4 2 4 4 4 5 2 5 4 5 2 3 5 3 5 8 10 10
2 2 1 2 1 5 4 4 3 3 2 3 2 2 2 2 4 3 2 2 4 4 5 4 2 4 3 2 2 2 2 4 5 2 3 5 7 5 5 5 6 7 6 10 10
3 5 4 3 3 3 3 3 7 4 1 2 1 2 2 1 1 3 1 1 5 2 1 3 3 3 8 12 10 8 7 5 7 6 5 4 6 5 3 5 4 4 7 9 12
3 4 3 3 5 6 1 3 5 1 4 3 2 4 3 2 2 3 3 2 1 1 2 1 3 3 4 3 7 9 10 10 11 8 8 1 10 4 3 4 4 5 7 7 10
9 1 4 5 3 5 5 5 7 5 1 2 3 3 3 2 1 2 2 5 4 1 3 3 2 2 4 4 5 5 6 9 5 3 6 5 4 4 1 1 3 5 5 7 10
Wind_Direction
321 318 313 312 313 315 318 323 327 332 336 337 340 341 339 335 329 338 262 186 305 320 323 322 14 95 107 32 108 119 74 236 252 198 266 325 137 23 1 110 68 15 138 210 159
326 318 305 306 305 306 309 311 316 322 326 331 335 337 338 333 327 303 213 281 321 331 342 17 29 15 46 185 105 115 158 221 220 215 241 303 222 171 163 237 185 40 37 128 150
334 330 316 313 303 299 300 306 310 310 318 326 332 333 336 333 332 249 153 334 334 319 328 310 301 131 232 126 197 174 215 221 268 216 206 231 278 171 163 242 215 192 178 164 152
339 334 328 308 310 308 296 304 305 304 311 323 327 332 337 341 324 171 340 340 310 294 305 328 31 74 239 225 186 237 241 231 278 246 177 236 165 257 197 223 281 201 165 161 169
341 335 329 319 310 309 301 291 290 290 301 320 327 333 350 7 257 246 346 324 296 314 330 337 90 125 252 300 318 221 273 302 323 307 250 262 231 222 239 239 121 132 156 177 181
339 335 331 323 314 307 302 302 297 303 295 309 326 329 35 294 234 265 344 332 325 0 35 43 135 188 254 247 206 321 281 276 275 249 236 216 242 161 246 164 163 159 181 184 183
340 337 331 326 319 310 299 297 294 291 301 307 308 328 156 245 239 266 307 304 357 4 136 90 94 48 151 296 343 282 304 311 249 289 253 181 268 233 201 158 175 188 193 182 180
341 336 338 334 324 311 300 292 291 295 295 289 292 169 242 258 263 259 262 296 252 329 9 102 8 175 193 320 346 286 31 343 271 25 39 108 280 270 267 165 193 200 208 190 170
340 339 337 338 338 331 312 299 287 297 296 264 182 176 264 291 249 256 226 255 301 274 24 95 53 85 26 78 351 347 259 241 308 174 109 170 280 293 130 175 209 214 217 181 24
335 339 336 337 339 339 331 319 298 305 98 133 120 200 274 258 202 211 201 208 89 85 53 55 48 61 38 94 237 231 255 265 246 261 222 243 257 258 233 206 226 227 174 45 323
334 334 333 334 334 336 349 45 21 55 186 200 181 277 253 268 238 205 169 122 107 85 183 65 47 226 218 207 213 208 216 252 262 261 247 249 266 272 246 235 231 217 161 334 320
333 332 333 329 328 343 4 61 138 215 314 246 238 240 249 42 277 242 169 172 168 204 144 9 242 238 245 195 210 221 268 274 281 268 223 285 273 280 277 263 208 145 95 349 339
331 331 332 326 326 357 74 111 56 156 271 307 357 110 268 40 271 301 139 34 213 223 198 195 224 77 186 209 220 236 214 245 250 329 263 300 291 341 13 83 99 109 89 7 288
325 332 332 333 318 338 65 4 67 174 9 283 318 309 88 94 274 143 97 144 267 260 276 227 265 188 211 248 160 269 192 224 321 10 256 28 285 301 188 292 182 167 8 315 327
317 326 334 338 317 360 316 331 235 130 7 183 182 182 317 181 311 28 48 84 245 267 56 271 207 214 232 223 172 240 264 260 205 217 2 213 88 269 79 285 248 248 330 338 295
307 316 327 317 316 300 332 313 139 46 258 208 163 207 15 132 243 331 23 24 255 274 224 240 293 180 183 99 89 358 327 43 52 117 359 232 149 264 202 216 284 299 329 320 314
297 303 302 310 262 313 326 262 18 175 319 179 148 75 39 297 312 170 59 2 18 22 0 318 219 88 118 61 44 73 49 331 349 358 236 214 141 252 237 219 221 280 312 313 309
289 293 278 270 289 337 339 56 217 237 214 237 114 360 210 0 272 333 173 290 47 80 30 18 321 170 74 181 194 170 144 154 249 285 290 179 237 265 233 205 223 266 281 306 323
291 283 251 233 260 311 92 185 211 211 257 70 37 61 218 142 122 10 69 81 56 45 158 286 268 50 35 97 133 210 188 173 103 233 351 229 276 329 242 272 311 330 343 326 323
271 280 256 235 237 147 127 237 218 334 351 72 179 163 247 316 5 26 358 353 93 74 168 211 301 162 150 107 21 171 160 57 8 301 285 288 279 243 277 288 318 331 327 323 319
216 68 207 280 180 121 215 227 169 16 114 79 166 170 194 299 303 286 297 122 126 221 286 113 114 280 15 207 184 98 318 237 106 156 193 305 277 218 221 239 285 306 309 308 318
176 210 165 175 106 25 158 208 154 166 74 123 126 69 124 50 300 272 235 218 152 115 161 182 163 265 231 341 328 271 205 149 145 264 102 144 276 267 212 238 231 296 312 308 308
202 210 208 189 174 233 298 252 159 188 185 112 106 122 100 93 270 257 296 96 118 222 179 162 225 312 336 5 352 237 201 135 97 78 216 139 264 234 90 318 312 290 320 315 320
165 185 298 68 171 145 169 220 117 19 86 91 103 88 131 206 200 279 262 159 189 213 224 178 216 233 243 221 131 251 204 166 149 146 190 231 291 294 37 298 330 327 329 318 321
197 222 187 176 215 148 160 196 179 179 30 108 122 202 151 179 296 230 254 319 197 275 214 166 245 225 262 261 244 245 243 181 186 210 183 246 223 272 247 262 276 311 319 337 343
229 141 351 160 137 121 127 198 182 136 154 184 175 145 147 158 191 293 350 214 319 45 183 204 272 276 274 271 259 252 241 229 214 239 257 241 290 151 227 254 349 345 346 337 339
240 250 115 164 133 132 187 173 189 141 272 146 146 120 212 254 68 334 275 279 268 277 216 184 253 300 265 331 298 272 229 201 194 206 160 192 236 154 183 85 349 334 340 327 333